Humidity-temperature Sensor

Selected Measurement Type: Relative Humidity

 
Relative Humidity [%]     6 entries per hour
Showing data from 5/30/2018 (00:00:00 Z) to 5/27/2018 (00:01:00 Z)
Previous Next [ Day | 3-Days | 7-Days ]
First Last
Prev [ Day | 3-Days | 7-Days ] Next
First Last

Start Time:     :
End Time:     :     
Time (in GMT) :00 :50 :40 :30 :20 :10
Previous Next [ Day | 3-Days | 7-Days ]
First Last
Prev [ Day | 3-Days | 7-Days ] Next
First Last


123 => good data
MM => data is determined as missing
-- => data not received/configured
Back to Top Back to Top
5/30/2018 00:00 to 23:10 78.61 78.22 78.84 78.45 77.99 79.67
5/29/2018 23:00 to 22:10 80.04 80.64 80.68 79.96 80.10 79.52
5/29/2018 22:00 to 21:10 79.79 79.79 79.05 79.48 77.78 78.55
5/29/2018 21:00 to 20:10 78.41 78.32 78.32 77.83 76.75 75.42
5/29/2018 20:00 to 19:10 76.09 75.92 76.00 76.09 75.09 75.07
5/29/2018 19:00 to 18:10 74.30 75.48 74.41 74.66 75.24 74.24
5/29/2018 18:00 to 17:10 75.57 81.24 84.27 85.16 86.38 86.67
5/29/2018 17:00 to 16:10 86.03 84.91 87.50 88.08 87.19 87.91
5/29/2018 16:00 to 15:10 89.20 90.17 89.78 89.59 90.36 91.12
5/29/2018 15:00 to 14:10 89.70 88.02 89.14 90.30 91.70 92.26
5/29/2018 14:00 to 13:10 91.46 90.13 90.09 89.03 86.28 85.95
5/29/2018 13:00 to 12:10 85.34 86.17 87.83 88.12 88.00 87.96
5/29/2018 12:00 to 11:10 88.56 89.45 88.58 89.07 88.08 86.53
5/29/2018 11:00 to 10:10 88.39 87.96 87.64 86.73 86.88 86.88
5/29/2018 10:00 to 9:10 86.92 84.58 86.36 86.75 87.17 86.96
5/29/2018 09:00 to 8:10 87.13 87.54 86.92 86.53 86.69 87.13
5/29/2018 08:00 to 7:10 85.74 85.82 85.22 85.53 86.11 86.69
5/29/2018 07:00 to 6:10 87.89 88.70 88.78 88.89 88.31 88.47
5/29/2018 06:00 to 5:10 89.03 88.68 86.82 86.75 88.41 87.58
5/29/2018 05:00 to 4:10 84.64 85.32 84.39 83.42 82.24 81.18
5/29/2018 04:00 to 3:10 80.87 80.89 82.28 83.65 83.54 82.61
5/29/2018 03:00 to 2:10 83.42 83.29 82.98 82.76 82.01 83.79
5/29/2018 02:00 to 1:10 83.02 83.71 83.96 84.00 83.46 83.42
5/29/2018 01:00 to 0:10 82.82 83.42 82.22 81.70 81.99 82.40
5/29/2018 00:00 to 23:10 82.61 82.69 84.23 83.75 85.78 83.73
5/28/2018 23:00 to 22:10 83.27 83.60 83.11 82.88 82.53 82.49
5/28/2018 22:00 to 21:10 82.57 81.84 82.57 83.52 84.16 83.94
5/28/2018 21:00 to 20:10 84.72 83.56 83.92 83.21 82.92 85.20
5/28/2018 20:00 to 19:10 83.19 83.89 83.63 84.79 85.14 83.50
5/28/2018 19:00 to 18:10 83.85 84.89 82.67 82.76 83.52 83.73
5/28/2018 18:00 to 17:10 82.53 81.33 84.35 84.62 84.91 85.90
5/28/2018 17:00 to 16:10 85.34 84.89 85.10 86.36 87.11 87.09
5/28/2018 16:00 to 15:10 87.29 86.86 86.63 86.55 87.21 88.16
5/28/2018 15:00 to 14:10 88.00 88.25 89.47 89.90 89.99 89.90
5/28/2018 14:00 to 13:10 89.51 88.93 89.99 91.44 91.62 92.60
5/28/2018 13:00 to 12:10 92.22 90.19 89.41 88.87 89.86 89.01
5/28/2018 12:00 to 11:10 88.62 89.01 87.79 85.63 87.81 85.24
5/28/2018 11:00 to 10:10 84.85 83.52 85.24 84.99 84.95 86.05
5/28/2018 10:00 to 9:10 86.34 86.32 86.24 85.47 87.11 88.29
5/28/2018 09:00 to 8:10 88.14 89.59 89.53 89.61 89.74 89.84
5/28/2018 08:00 to 7:10 88.89 89.47 88.87 89.07 88.14 87.06
5/28/2018 07:00 to 6:10 86.19 85.68 85.28 85.41 87.29 86.75
5/28/2018 06:00 to 5:10 85.80 85.08 84.39 88.27 88.18 88.91
5/28/2018 05:00 to 4:10 88.33 87.42 86.46 88.49 88.00 85.72
5/28/2018 04:00 to 3:10 85.86 86.61 86.46 85.74 84.91 85.37
5/28/2018 03:00 to 2:10 84.89 84.08 84.91 83.46 82.49 83.71
5/28/2018 02:00 to 1:10 85.51 88.12 88.00 89.47 83.89 82.88
5/28/2018 01:00 to 0:10 82.22 81.37 81.26 80.87 80.58 80.87
5/28/2018 00:00 to 23:10 84.18 88.27 88.20 86.44 87.00 87.38
5/27/2018 23:00 to 22:10 88.43 90.38 89.65 89.36 88.39 88.39
5/27/2018 22:00 to 21:10 88.29 87.15 87.09 87.58 88.18 89.61
5/27/2018 21:00 to 20:10 90.34 90.79 90.71 87.38 87.81 85.80
5/27/2018 20:00 to 19:10 85.59 82.61 82.26 83.92 88.02 87.17
5/27/2018 19:00 to 18:10 86.46 86.67 87.02 87.27 88.51 88.35
5/27/2018 18:00 to 17:10 89.55 90.34 89.94 89.36 89.55 88.49
5/27/2018 17:00 to 16:10 87.69 90.36 90.90 91.89 90.42 86.82
5/27/2018 16:00 to 15:10 85.39 85.82 85.12 85.24 84.41 85.14
5/27/2018 15:00 to 14:10 86.98 86.13 84.31 83.11 83.23 82.13
5/27/2018 14:00 to 13:10 80.89 81.35 80.81 82.63 82.44 80.37
5/27/2018 13:00 to 12:10 81.14 80.37 79.38 79.88 79.65 80.58
5/27/2018 12:00 to 11:10 80.41 79.23 79.48 78.55 80.29 79.42
5/27/2018 11:00 to 10:10 77.66 77.60 80.70 79.57 80.44 82.63
5/27/2018 10:00 to 9:10 80.79 77.54 77.64 76.23 77.80 77.43
5/27/2018 09:00 to 8:10 77.06 76.44 77.51 77.29 79.94 81.76
5/27/2018 08:00 to 7:10 80.70 79.32 79.75 78.82 79.09 79.01
5/27/2018 07:00 to 6:10 79.30 79.13 79.46 81.82 81.10 81.93
5/27/2018 06:00 to 5:10 82.34 82.01 78.84 77.60 78.05 77.78
5/27/2018 05:00 to 4:10 78.07 79.07 77.91 78.67 77.62 80.33
5/27/2018 04:00 to 3:10 80.97 85.74 87.29 86.84 86.01 85.45
5/27/2018 03:00 to 2:10 85.63 84.62 83.05 85.66 84.27 83.34
5/27/2018 02:00 to 1:10 85.18 89.07 87.52 81.72 81.12 83.46
5/27/2018 01:00 to 0:10 83.69 80.85 80.35 80.56 83.52 81.99